Location: Coed Ely
(51.5661°N, 3.4150°W)
Time: 02:35:12
(UTC+00:00)

TELKOM 3 - Pass Details

Date: 28 January 2021
Orbit: 143 x 178 km, 49.9° (Epoch: 05 February)

Event Time Altitude Azimuth Distance (km) Brightness Sun altitude
Rises 18:14:08 0° 270° (W) 1,513 8.3 -12.1°
Reaches altitude 10° 18:15:53 10° 261° (W) 771 6.6 -12.4°
Maximum altitude 18:17:28 36° 189° (S) 298 3.2 -12.6°
Enters shadow 18:17:49 31° 156° (SSE) 336 3.2 -12.7°
